Monticello, KY

5:18 PM CDT on August 27, 2016 (GMT -0500)
Wayne County

Weather History for KEKQ - April, 2013

Change the Weather History Date:

Wednesday, April 24, 2013

  Actual Average Record
Temperature  
Mean Temperature 54 °F -  
Max Temperature 66 °F 71 °F 86 °F (1960)
Min Temperature 43 °F 46 °F 28 °F (1986)
Degree Days  
Heating Degree Days 10    
Growing Degree Days 4 (Base 50)    
Moisture  
Dew Point 50 °F    
Average Humidity 84    
Maximum Humidity 100    
Minimum Humidity 61    
Precipitation  
Precipitation 0.40 in - - ()
Sea Level Pressure  
Sea Level Pressure 30.07 in    
Wind  
Wind Speed 11 mph (WSW)    
Max Wind Speed 25 mph    
Max Gust Speed 30 mph    
Visibility 7 miles    
Events Rain    
Averages and records for this station are not official NWS values.
T = Trace of Precipitation, MM = Missing Value Source: NWS Daily Summary

Daily Weather History Graph

Daily Weather History Graph

Search for Another Location

Airport or City:

Trip Planner

Search our weather history database for the weather conditions in past years. The results will help you decide how hot, cold, wet, or windy it might be!

Date:

Astronomy

Apr. 24, 2013 Rise Set
Actual Time 5:53 AM CDT 7:22 PM CDT
Civil Twilight 5:26 AM CDT 7:49 PM CDT
Nautical Twilight 4:53 AM CDT 8:22 PM CDT
Astronomical Twilight 4:18 AM CDT 8:57 PM CDT
Moon 6:25 PM CDT (4/24) 4:54 AM CDT (4/24)
Length of Visible Light 14h 23m
Length of Day
13h 28m
Waxing Gibbous, 98% of the Moon is Illuminated
Apr 24
Waxing Gibbous
Apr 25
Full
May 2
Last Quarter
May 9
New
May 17
First Quarter

Hourly Weather History & Observations

Time (CDT) Temp. Windchill Dew Point Humidity Pressure Visibility Wind Dir Wind Speed Gust Speed Precip Events Conditions
12:05 AM 60.8 °F - 48.2 °F 63% 30.02 in 2.0 mi South 6.9 mph - N/A   Haze
12:27 AM 60.8 °F - 48.2 °F 63% 30.02 in 6.0 mi South 4.6 mph - N/A   Haze
12:56 AM 63.9 °F - 50.0 °F 61% 30.01 in 10.0 mi South 10.4 mph - N/A   Mostly Cloudy
1:56 AM 63.9 °F - 50.0 °F 61% 29.98 in 10.0 mi South 10.4 mph - N/A   Partly Cloudy
2:56 AM 61.9 °F - 50.0 °F 65% 29.95 in 10.0 mi SSE 10.4 mph - N/A   Clear
3:56 AM 63.0 °F - 50.0 °F 63% 29.95 in 10.0 mi South 10.4 mph - N/A   Clear
4:56 AM 63.0 °F - 50.9 °F 65% 29.95 in 4.0 mi South 11.5 mph - N/A   Haze
5:12 AM 62.6 °F - 51.8 °F 68% 29.94 in 2.5 mi South 8.1 mph - N/A   Haze
5:34 AM 62.6 °F - 51.8 °F 68% 29.93 in 4.0 mi South 11.5 mph 17.3 mph N/A   Haze
5:56 AM 63.9 °F - 50.9 °F 63% 29.93 in 7.0 mi South 13.8 mph 19.6 mph N/A   Mostly Cloudy
6:56 AM 63.9 °F - 52.0 °F 65% 29.93 in 10.0 mi South 11.5 mph - N/A   Clear
7:56 AM 64.9 °F - 54.0 °F 68% 29.92 in 10.0 mi SSW 12.7 mph 23.0 mph N/A   Scattered Clouds
8:56 AM 65.8 °F - 54.9 °F 68% 29.89 in 10.0 mi South 18.4 mph 24.2 mph N/A   Scattered Clouds
9:56 AM 66.9 °F - 55.9 °F 68% 29.95 in 9.0 mi SSW 15.0 mph 26.5 mph 0.00 in Rain Light Rain
10:27 AM 64.4 °F - 57.2 °F 77% 29.99 in 2.5 mi WSW 13.8 mph 21.9 mph 0.01 in Rain Light Rain
10:36 AM 62.6 °F - 59.0 °F 88% 30.01 in 1.2 mi WSW 16.1 mph - 0.04 in Rain Heavy Rain
10:39 AM 62.6 °F - 60.8 °F 94% 30.00 in 0.8 mi West 16.1 mph - 0.08 in Rain Heavy Rain
10:41 AM 62.6 °F - 60.8 °F 94% 30.00 in 0.8 mi West 15.0 mph - 0.08 in Rain Heavy Rain
10:48 AM 60.8 °F - 60.8 °F 100% 30.00 in 1.2 mi West 15.0 mph - 0.10 in Rain Rain
10:56 AM 59.9 °F - 59.9 °F 100% 30.02 in 1.0 mi WSW 17.3 mph 24.2 mph 0.13 in Rain Heavy Rain
11:00 AM 60.8 °F - 59.0 °F 94% 30.02 in 0.8 mi WSW 17.3 mph 24.2 mph 0.03 in Rain Rain
11:20 AM 57.2 °F - 57.2 °F 100% 30.02 in 1.2 mi SW 12.7 mph 21.9 mph 0.13 in Rain Light Rain
11:24 AM 59.0 °F - 59.0 °F 100% 30.03 in 2.0 mi SW 12.7 mph - 0.13 in Rain Light Rain
11:32 AM 59.0 °F - 59.0 °F 100% 30.03 in 2.0 mi WSW 12.7 mph - 0.15 in Rain Rain
11:36 AM 59.0 °F - 59.0 °F 100% 30.04 in 1.2 mi WSW 13.8 mph - 0.17 in Rain Rain
11:43 AM 59.0 °F - 59.0 °F 100% 30.01 in 0.8 mi SSW 10.4 mph 19.6 mph 0.20 in Rain Rain
11:56 AM 59.0 °F - 59.0 °F 100% 30.01 in 1.0 mi SSW 12.7 mph - 0.24 in Rain Rain
12:01 PM 59.0 °F - 59.0 °F 100% 30.00 in 1.2 mi SW 12.7 mph - 0.02 in Rain Rain
12:08 PM 59.0 °F - 59.0 °F 100% 30.01 in 2.0 mi SW 12.7 mph - 0.03 in Rain Light Rain
12:17 PM 59.0 °F - 59.0 °F 100% 30.02 in 10.0 mi SW 12.7 mph - 0.03 in Rain Light Rain
12:39 PM 51.8 °F - 51.8 °F 100% 30.05 in 2.5 mi WNW 25.3 mph 29.9 mph 0.03 in Rain Light Rain
12:48 PM 50.0 °F - 48.2 °F 94% 30.06 in 8.0 mi WNW 24.2 mph 29.9 mph 0.03 in   Overcast
12:56 PM 48.9 °F - 48.9 °F 100% 30.08 in 10.0 mi WNW 17.3 mph 29.9 mph 0.03 in   Overcast
1:16 PM 50.0 °F - 48.2 °F 94% 30.08 in 10.0 mi West 12.7 mph - 0.00 in   Overcast
1:56 PM 47.8 °F - 45.9 °F 93% 30.11 in 10.0 mi West 12.7 mph - 0.00 in   Overcast
2:56 PM 47.8 °F - 45.9 °F 93% 30.14 in 10.0 mi West 8.1 mph - N/A   Overcast
3:56 PM 46.9 °F - 45.0 °F 93% 30.17 in 10.0 mi NW 11.5 mph 19.6 mph N/A   Overcast
4:56 PM 45.9 °F 41.2 °F 43.9 °F 93% 30.19 in 10.0 mi NW 9.2 mph - N/A   Overcast
5:24 PM 46.4 °F 42.4 °F 42.8 °F 87% 30.19 in 10.0 mi WNW 8.1 mph - N/A   Overcast
5:56 PM 45.9 °F 41.2 °F 41.9 °F 86% 30.22 in 10.0 mi NW 9.2 mph - N/A   Overcast
6:56 PM 45.9 °F 41.7 °F 41.0 °F 83% 30.24 in 10.0 mi WNW 8.1 mph - N/A   Overcast
7:09 PM 46.4 °F 43.5 °F 41.0 °F 81% 30.23 in 10.0 mi WNW 5.8 mph - N/A   Overcast
7:21 PM 44.6 °F 40.2 °F 41.0 °F 87% 30.23 in 10.0 mi NW 8.1 mph - N/A   Overcast
7:28 PM 44.6 °F 39.7 °F 41.0 °F 87% 30.24 in 10.0 mi NW 9.2 mph - N/A   Overcast
7:48 PM 44.6 °F 39.7 °F 39.2 °F 81% 30.24 in 10.0 mi WNW 9.2 mph - N/A   Overcast
7:56 PM 45.0 °F 41.2 °F 39.9 °F 82% 30.26 in 10.0 mi NW 6.9 mph - N/A   Overcast
8:14 PM 44.6 °F 41.4 °F 39.2 °F 81% 30.25 in 10.0 mi NW 5.8 mph - N/A   Mostly Cloudy
8:56 PM 45.0 °F 41.8 °F 41.0 °F 86% 30.28 in 10.0 mi NW 5.8 mph - N/A   Mostly Cloudy
9:56 PM 43.0 °F 39.5 °F 38.8 °F 85% 30.29 in 10.0 mi NW 5.8 mph - N/A   Overcast
10:56 PM 43.9 °F 40.5 °F 38.8 °F 82% 30.31 in 10.0 mi NNW 5.8 mph - N/A   Overcast
11:56 PM 43.9 °F 40.5 °F 36.0 °F 74% 30.32 in 10.0 mi NNW 5.8 mph - N/A   Overcast